Highlands Peak, California Weather observations

Data are for observation ending at time listed.
 Day   Time    Ave.   Ave.  Ave.  Vector   Max.   Stn.    Total    Solar   Ave.  
  of    of     Air    Rel.  Wind   Wind    Wind   Baro.  Precip.   Rad.    Soil  
Year   Day     Temp.  Hum.  Speed  Dir.    Gust   Pres.                    Temp. 
2017   (PST)    F      %     mph   deg.    mph     mb.     in.     W/m2     F   
------------------------------------------------------------------------------
 144   18:50   47.2    95    0.2   208      1.3   922.6    0.00      26    79.1
 144   19:00   46.9    95    0.7   289      2.1   922.6    0.00      18    79.0
 144   19:10   46.7    96    1.6   283      2.3   922.6    0.00       8    78.8
 144   19:20   46.5    96    0.8   289      2.0   922.6    0.00       2    78.7
 144   19:30   46.2    96    0.6   291      2.2   922.6    0.00       1    78.5
 144   19:40   46.1    96    0.4   331      1.3   922.7    0.00       0    78.3
 144   19:50   46.0    96    1.2    97      2.5   922.7    0.00       0    78.2
 144   20:00   45.6    96    0.6   113      2.3   922.7    0.00       0    78.1
 144   20:10   45.3    96    0.3   360      2.2   922.7    0.00       0    77.9
 144   20:20   45.4    97    0.6    24      2.0   922.8    0.00       0    77.7
 144   20:30   45.5    97    1.4   336      2.7   922.8    0.00       0    77.5
 144   20:40   45.2    97    1.4   343      3.4   922.7    0.00       0    77.3
 144   20:50   45.2    97    0.1   313      1.8   922.7    0.00       0    77.2
 144   21:00   45.2    97    1.0   344      3.3   922.8    0.00       0    77.0
 144   21:10   45.1    97    1.3    61      2.4   922.8    0.00       0    76.9
 144   21:20   45.1    97    2.4    12      4.1   922.8    0.00       0    76.6
 144   21:30   45.1    97    2.2   325      4.2   922.9    0.00       0    76.4
 144   21:40   44.8    97    0.7     2      1.8   922.9    0.00       0    76.1
 144   21:50   44.6    97    0.5   309      2.0   923.0    0.00       0    76.0
 144   22:00   44.7    97    1.4   121      3.3   923.0    0.00       0    75.9
 144   22:10   44.6    97    0.8    88      2.0   922.9    0.00       0    75.8
 144   22:20   44.7    97    0.6   174      1.9   922.9    0.00       0    75.6
 144   22:30   44.6    97    0.5   141      2.4   922.9    0.00       0    75.5
 144   22:40   44.4    97    1.8    97      3.9   922.8    0.00       0    75.3
 144   22:50   44.2    98    1.0    91      3.1   922.7    0.00       0    75.2
 144   23:00   43.9    97    1.8   122      3.3   922.7    0.00       0    75.1
 144   23:10   43.5    98    1.8   130      3.7   922.7    0.00       0    74.9
 144   23:20   43.8    98    2.0   173      3.4   922.7    0.00       0    74.7
 144   23:30   43.8    98    2.7   171      5.1   922.7    0.00       0    74.6
 144   23:40   43.4    98    2.1   140      4.0   922.7    0.00       0    74.3
 144   23:50   43.4    98    1.1   125      3.9   922.7    0.00       0    74.0
 145    0:00   43.4    98    0.6     9      2.3   922.7    0.00       0    73.9
 145    0:10   43.5    98    1.2   200      3.4   922.7    0.00       0    73.8
 145    0:20   43.7    98    1.8   318      5.3   922.7    0.00       0    73.6
 145    0:30   43.5    98    3.0   323      5.6   922.7    0.00       0    73.4
 145    0:40   43.4    98    1.4   304      3.7   922.7    0.00       0    73.3
 145    0:50   43.3    98    1.8    29      3.4   922.6    0.00       0    73.1
 145    1:00   43.3    98    3.1   135      5.3   922.6    0.00       0    73.0
 145    1:10   43.1    98    3.0   101      6.3   922.6    0.00       0    72.8
 145    1:20   43.1    98    5.4   117      8.2   922.6    0.00       0    71.9
 145    1:30   43.0    98    5.2   120      7.6   922.5    0.00       0    71.2
 145    1:40   43.1    98    4.7    89      7.7   922.6    0.00       0    71.5
 145    1:50   43.3    98    4.2   108      7.3   922.7    0.00       0    71.6
 145    2:00   43.1    98    3.9   120      7.5   922.7    0.00       0    71.4
 145    2:10   43.0    98    6.4   114     12.1   922.6    0.00       0    70.6
 145    2:20   43.0    98    7.7   108     10.6   922.5    0.00       0    69.5
 145    2:30   43.0    98    7.9   103     11.4   922.5    0.00       0    69.6
 145    2:40   43.2    98    5.3   112      8.7   922.5    0.00       0    69.8
 145    2:50   43.3    98    7.0   123     11.7   922.5    0.00       0    69.6
 145    3:00   43.2    98    6.7    91     11.1   922.5    0.00       0    69.4
 145    3:10   43.2    98    6.8    97     11.4   922.5    0.00       0    69.6
 145    3:20   43.4    98    6.4    99     12.0   922.4    0.00       0    69.4
 145    3:30   43.5    98    5.3   105     11.0   922.4    0.00       0    69.5
 145    3:40   43.6    98    7.1   110     12.6   922.4    0.00       0    69.1
 145    3:50   43.7    98    6.4   127      9.7   922.5    0.00       0    68.8
 145    4:00   43.8    98    6.4   125     11.2   922.4    0.00       0    68.6
 145    4:10   43.7    98    8.5   119     13.7   922.5    0.00       0    68.3
 145    4:20   43.7    98    7.8   109     12.9   922.6    0.00       0    68.0
 145    4:30   43.7    98    7.7   103     12.2   922.6    0.00       0    68.1
 145    4:40   43.8    98    6.1   104      9.4   922.6    0.00       0    68.3
 145    4:50   43.9    98    5.3   113      9.9   922.6    0.00       0    68.4
 145    5:00   43.9    98    7.3   112     13.3   922.6    0.00       1    67.9
 145    5:10   44.0    98    6.6   110     11.0   922.5    0.00       2    67.9
 145    5:20   44.0    98    6.7   118     11.3   922.6    0.00       7    67.8
 145    5:30   43.9    98    9.1   119     13.7   922.5    0.00       7    66.9
 145    5:40   43.9    98    8.0   113     12.6   922.6    0.00      17    66.7
 145    5:50   44.1    98    7.4   106     11.9   922.6    0.00      32    66.9
 145    6:00   44.3    98    6.7   112     10.1   922.6    0.00      55    67.2
 145    6:10   44.5    98    6.6   102      9.8   922.6    0.00      70    67.5
 145    6:20   44.7    98    7.9   111     13.9   922.7    0.00      92    67.4
 145    6:30   44.8    98    6.7   117     11.2   922.9    0.00      70    67.4
 145    6:40   44.9    98    5.4   108      9.6   923.1    0.00      61    67.6
 145    6:50   45.0    98    4.7   124      7.5   923.1    0.00      61    67.7
 145    7:00   44.9    98    9.0   120     13.4   923.1    0.00      96    67.2
 145    7:10   45.4    98    6.8   103     11.0   923.1    0.00     114    67.1
 145    7:20   45.9    97    3.3   111      7.3   923.2    0.00     107    67.4
 145    7:30   46.0    97    3.5   136      7.2   923.2    0.00      99    67.7
 145    7:40   45.8    97    4.0   145      8.1   923.2    0.00     111    67.7
 145    7:50   45.5    97    5.7   142      9.6   923.2    0.00     129    67.5
 145    8:00   45.4    97    6.3   134      9.3   923.2    0.00     136    67.2
 145    8:10   45.4    97    7.7   142     10.8   923.3    0.00     141    66.9
 145    8:20   45.6    97    6.9   138     10.8   923.4    0.00     162    67.0
 145    8:30   45.7    97    7.7   127     11.5   923.5    0.00     166    66.7
 145    8:40   45.9    97    6.4   127      9.3   923.4    0.00     140    66.8
 145    8:50   45.7    97    7.0   137     11.5   923.5    0.00     139    66.8
 145    9:00   45.6    97    8.8   138     13.9   923.5    0.00     150    66.6
 145    9:10   45.6    97    8.6   140     13.0   923.6    0.00     167    66.5
 145    9:20   45.9    97    8.2   137     15.1   923.6    0.00     191    66.4
 145    9:30   46.1    97    7.5   142     12.0   923.6    0.00     202    66.6
 145    9:40   46.0    97    8.1   133     13.8   923.7    0.00     225    66.4
 145    9:50   46.1    97    7.1   135     13.3   923.8    0.00     207    66.5
 145   10:00   46.0    97    8.3   142     13.4   923.8    0.00     216    66.4
 145   10:10   46.1    97    7.9   133     12.4   924.0    0.00     228    66.4
 145   10:20   45.9    97    8.6   146     12.8   924.0    0.00     224    66.3
 145   10:30   46.0    97    8.9   135     13.1   924.1    0.00     272    65.9
 145   10:40   46.5    97    8.3   145     12.6   924.2    0.00     353    66.3
 145   10:50   47.1    97    7.8   147     12.4   924.3    0.00     455    66.5
 145   11:00   47.5    97    8.3   146     12.4   924.3    0.00     413    66.7
 145   11:10   47.9    96    7.7   144     11.2   924.4    0.00     485    66.8
 145   11:20   47.7    95    8.1   138     13.4   924.5    0.00     345    66.9
 145   11:30   47.5    95    9.3   133     15.7   924.5    0.00     435    66.9
 145   11:40   47.8    94    9.5   145     14.1   924.5    0.00     412    67.0
 145   11:50   47.7    93    9.9   143     15.3   924.5    0.00     467    67.0
 145   12:00   47.4    93   10.5   130     15.3   924.5    0.00     302    66.9
 145   12:10   47.3    95    8.1   129     11.9   924.5    0.00     287    66.8
 145   12:20   47.6    95    8.2   130     12.7   924.5    0.00     327    67.1
 145   12:30   47.4    96    9.0   136     13.2   924.6    0.00     311    67.1
 145   12:40   47.4    96    8.1   141     14.9   924.6    0.00     322    67.2
 145   12:50   47.3    96    9.1   142     15.1   924.6    0.00     362    67.2
 145   13:00   47.9    97    9.5   127     15.2   924.6    0.00     596    67.2
 145   13:10   48.3    96   10.5   126     14.4   924.6    0.00     691    67.5
 145   13:20   49.4    96    8.9   126     14.0   924.6    0.00     709    67.8
 145   13:30   49.6    93    9.8   127     14.8   924.5    0.00     531    68.0
 145   13:40   49.3    91   10.6   133     16.6   924.5    0.00     528    68.0
 145   13:50   49.3    90    9.2   139     14.8   924.5    0.00     363    68.0
 145   14:00   49.9    88    7.5   125     12.6   924.4    0.00     361    68.1
 145   14:10   49.8    88    8.5   119     12.6   924.4    0.00     342    68.2
 145   14:20   49.7    88    8.0   136     12.1   924.4    0.00     307    68.2
 145   14:30   48.8    90    9.1   142     14.7   924.3    0.00     312    68.2
 145   14:40   49.1    89    8.3   146     12.4   924.3    0.00     327    68.3
 145   14:50   49.4    87    7.9   141     12.6   924.3    0.00     334    68.3
 145   15:00   49.9    85    6.9   150     11.6   924.3    0.00     310    68.5
 145   15:10   50.6    82    5.7   140     11.0   924.2    0.00     323    68.5
 145   15:20   51.0    81    5.5   149     11.7   924.1    0.00     330    68.6
 145   15:30   50.8    81    6.6   151     10.8   924.1    0.00     335    68.7
 145   15:40   50.7    79    6.6   151     10.9   924.1    0.00     302    68.7
 145   15:50   50.5    79    6.9   155     13.1   924.0    0.00     294    68.8
 145   16:00   51.1    79    5.5   158     10.7   924.0    0.00     275    68.8
 145   16:10   50.7    79    5.7   168     11.8   924.0    0.00     232    68.9
 145   16:20   50.7    79    5.6   159      9.4   924.0    0.00     218    69.0
 145   16:30   50.2    80    5.8   158     11.0   924.0    0.00     186    69.0
 145   16:40   50.2    81    5.7   156     10.7   924.0    0.00     167    69.0
 145   16:50   50.1    82    4.2   158     10.0   923.9    0.00     158    69.1
 145   17:00   49.9    82    5.2   152      8.9   924.0    0.00     139    69.1
 145   17:10   49.6    83    6.1   150      9.9   924.0    0.00     122    69.0
 145   17:20   49.4    84    4.4   172      8.3   923.9    0.00     106    69.1
 145   17:30   49.3    86    4.3   170      9.0   923.9    0.00      91    69.1
 145   17:40   49.1    86    4.2   157      8.2   923.9    0.00      85    69.1
 145   17:50   48.8    87    6.2   149      9.6   923.8    0.00      76    69.0
 145   18:00   48.5    88    4.9   149      7.9   923.9    0.00      65    69.0
 145   18:10   48.2    89    5.2   148      8.5   923.9    0.00      52    69.0
 145   18:20   48.0    90    5.0   147      8.6   923.9    0.00      40    69.0
 145   18:30   47.6    91    5.0   143      8.1   924.0    0.00      26    68.9
 145   18:40   47.2    91    6.0   146      9.2   924.1    0.00      19    68.7

Return to Highlands Peak graphs page.


Western Regional Climate Center,wrcc@dri.edu